Temp
9 9 9 9 9 9 9 10 10 10 10 10 10 10 10 10 10 9 9 9 9 10 10 10 11 11 11 11 11 11 11 11 11 11 11 10 10 10 10 10 10 10
9 9 9 9 9 9 10 10 10 10 10 10 10 10 10 10 10 10 10 10 10 10 11 11 11 11 11 11 11 11 11 11 11 11 10 10 10 10 10 10 10 10
9 9 9 9 10 10 10 10 10 10 10 10 10 10 10 10 10 10 10 11 11 11 11 11 11 11 11 11 11 11 11 11 11 10 10 10 10 10 10 10 10 10
10 10 10 10 10 10 10 10 10 10 10 10 10 10 10 10 10 11 11 11 11 10 11 11 11 11 10 10 11 11 11 11 10 10 10 10 10 10 10 10 10 10
10 10 10 10 10 10 10 10 10 10 10 10 10 10 10 10 10 10 10 10 10 10 10 10 10 10 10 10 10 10 10 10 10 10 9 10 10 10 10 10 10 10
10 10 10 10 10 10 10 9 9 9 9 9 9 10 10 10 10 10 10 10 10 10 10 10 10 10 9 9 9 10 10 9 10 9 9 9 9 9 9 10 9 9
10 10 10 9 9 9 9 9 9 9 9 9 9 9 9 9 9 9 9 10 10 10 10 10 10 10 9 9 9 9 9 9 9 9 9 9 9 9 9 9 9 9
9 9 9 9 9 9 9 9 9 9 9 9 9 9 9 9 9 9 9 9 9 10 10 10 10 10 10 9 9 9 9 9 9 9 9 9 9 9 8 9 9 9
9 9 9 9 9 9 9 9 9 9 9 9 9 9 9 9 9 9 9 9 9 9 10 10 10 10 9 9 9 9 8 8 8 8 8 8 8 8 8 8 8 8
9 9 9 9 8 8 8 8 8 8 8 8 8 8 9 9 9 9 9 9 9 9 9 9 9 9 9 9 9 9 8 8 8 8 8 8 8 8 8 8 7 8
9 9 9 8 8 8 8 8 8 8 8 8 8 8 8 8 9 9 9 9 9 9 9 9 9 9 9 9 8 8 9 9 8 8 8 8 8 8 8 8 8 8
8 8 8 8 8 8 8 8 8 8 8 8 8 8 8 8 8 9 9 9 9 9 9 9 9 9 9 9 8 8 8 8 8 8 8 8 8 8 8 8 8 8
8 8 8 8 8 8 8 8 7 7 7 7 7 7 8 8 8 8 8 8 8 8 8 8 8 8 8 8 8 8 8 8 8 8 8 8 8 8 8 8 8 8
8 8 8 8 8 7 7 7 7 7 7 7 7 7 7 7 7 8 8 8 8 8 8 8 8 8 8 8 8 8 8 8 8 8 8 8 8 8 8 8 8 8
8 8 7 7 7 7 7 7 7 7 6 6 6 6 7 7 7 7 8 8 8 8 7 7 7 7 8 8 8 8 8 8 8 8 8 8 8 8 8 8 8 8
7 7 7 7 7 7 7 7 7 6 6 6 6 6 6 7 7 8 8 8 8 8 7 7 8 8 8 8 8 8 8 8 8 8 8 8 8 8 8 8 8 8
7 7 7 7 7 7 7 7 6 6 6 6 6 6 6 7 7 8 8 8 8 8 8 8 8 8 8 8 8 8 8 8 8 8 8 8 8 8 8 8 8 7
7 7 7 7 7 7 7 7 6 6 6 6 6 6 6 7 8 8 8 8 8 8 8 8 8 8 8 8 8 8 8 8 8 8 8 8 8 8 8 7 7 7
7 7 7 7 7 7 7 7 6 6 6 6 6 6 6 7 8 8 8 8 8 8 8 8 8 8 8 8 8 8 8 8 8 8 7 7 7 7 7 7 7 7
7 7 7 7 7 7 7 7 6 6 6 6 6 6 6 7 8 8 8 8 8 8 8 8 8 8 8 8 8 8 8 8 8 8 7 7 7 7 7 7 7 7
8 7 7 7 7 7 7 7 6 6 7 7 6 6 7 7 8 8 7 7 7 8 8 8 8 8 8 8 8 8 8 8 8 8 8 7 7 7 7 7 7 7
8 7 7 7 7 6 6 6 7 7 7 6 6 6 7 8 8 7 7 7 7 7 7 8 8 8 8 7 7 7 7 7 7 7 7 7 7 7 7 7 7 6
7 7 7 7 7 6 6 6 7 7 6 6 6 7 7 7 7 7 7 7 7 7 7 7 7 7 7 7 7 7 7 7 7 7 7 7 7 7 6 6 6 6
7 7 7 7 7 7 7 7 7 6 6 6 7 7 7 7 7 7 7 7 7 7 7 7 7 7 7 7 7 7 7 7 7 7 7 7 6 6 6 5 5 5
8 8 7 7 7 7 7 7 7 7 7 7 7 7 7 7 7 7 7 7 7 7 7 7 7 7 7 7 7 7 7 7 7 6 6 6 5 5 5 4 4 4
7 7 7 7 7 7 7 7 7 7 7 7 7 7 7 7 7 7 7 7 7 7 7 7 7 7 7 7 7 7 7 7 6 6 5 5 5 5 4 4 4 4
Height
3176 3176 3176 3177 3177 3177 3177 3178 3178 3179 3179 3179 3179 3178 3178 3178 3177 3176 3176 3175 3175 3174 3174 3173 3173 3172 3172 3171 3171 3170 3170 3170 3169 3169 3169 3169 3169 3169 3169 3169 3169 3169
3176 3176 3176 3176 3176 3176 3176 3177 3177 3177 3177 3177 3176 3176 3176 3176 3175 3175 3174 3174 3173 3173 3172 3172 3171 3171 3170 3170 3169 3169 3169 3168 3168 3168 3167 3167 3167 3167 3167 3167 3167 3167
3175 3175 3175 3175 3175 3176 3176 3176 3176 3176 3175 3175 3174 3174 3174 3174 3174 3173 3173 3172 3171 3171 3170 3170 3169 3169 3169 3168 3168 3167 3167 3167 3166 3166 3166 3165 3165 3165 3165 3165 3164 3164
3174 3174 3175 3175 3175 3175 3175 3175 3174 3174 3174 3173 3173 3173 3173 3173 3173 3172 3171 3170 3170 3169 3168 3168 3168 3167 3167 3166 3166 3166 3165 3165 3164 3164 3164 3163 3163 3163 3162 3162 3162 3161
3174 3174 3174 3174 3174 3174 3174 3174 3173 3173 3173 3173 3172 3172 3172 3171 3171 3170 3170 3169 3168 3168 3167 3166 3166 3165 3165 3164 3164 3163 3163 3162 3162 3162 3161 3161 3160 3160 3159 3159 3158 3158
3173 3173 3173 3174 3174 3174 3174 3173 3173 3173 3173 3172 3172 3171 3170 3170 3169 3168 3168 3167 3167 3166 3165 3165 3164 3164 3163 3163 3162 3161 3161 3160 3160 3159 3159 3158 3157 3157 3156 3155 3155 3155
3173 3173 3173 3174 3174 3174 3174 3174 3173 3173 3172 3171 3171 3170 3169 3169 3168 3167 3167 3166 3165 3165 3164 3163 3163 3162 3161 3161 3160 3160 3159 3158 3157 3157 3156 3155 3155 3154 3153 3152 3152 3152
3173 3174 3174 3174 3174 3174 3174 3173 3173 3172 3171 3171 3170 3170 3169 3168 3168 3167 3166 3165 3164 3164 3163 3162 3161 3160 3160 3159 3158 3157 3157 3156 3155 3154 3154 3153 3152 3151 3150 3149 3148 3148
3174 3174 3174 3174 3174 3174 3173 3173 3172 3171 3171 3170 3170 3169 3169 3168 3167 3166 3165 3164 3163 3162 3161 3160 3159 3158 3157 3156 3156 3155 3154 3154 3153 3152 3151 3150 3150 3149 3148 3147 3146 3145
3174 3174 3174 3173 3173 3173 3173 3172 3172 3171 3171 3170 3170 3169 3168 3168 3167 3166 3165 3163 3162 3161 3159 3158 3157 3156 3155 3154 3154 3153 3152 3152 3151 3150 3149 3148 3147 3146 3145 3144 3143 3142
3174 3174 3173 3173 3173 3173 3172 3172 3172 3171 3171 3170 3169 3168 3168 3167 3166 3165 3163 3162 3161 3159 3158 3157 3155 3154 3153 3152 3151 3151 3150 3149 3148 3147 3146 3145 3145 3144 3143 3142 3141 3140
3174 3174 3174 3174 3173 3173 3173 3172 3172 3171 3170 3169 3168 3168 3167 3166 3164 3163 3162 3160 3159 3157 3156 3155 3153 3152 3151 3150 3149 3148 3147 3147 3146 3145 3144 3143 3142 3141 3140 3139 3138 3137
3174 3174 3174 3174 3174 3173 3173 3172 3171 3170 3169 3168 3168 3167 3165 3164 3163 3161 3160 3158 3157 3155 3154 3153 3151 3150 3149 3148 3147 3146 3145 3144 3143 3142 3141 3141 3140 3139 3138 3136 3135 3134
3175 3175 3174 3174 3173 3173 3172 3171 3171 3170 3169 3168 3167 3165 3164 3163 3161 3159 3158 3156 3154 3153 3152 3150 3149 3148 3147 3146 3145 3144 3143 3142 3141 3140 3139 3138 3137 3136 3135 3133 3132 3131
3175 3175 3174 3173 3173 3172 3171 3170 3170 3169 3168 3167 3165 3164 3163 3161 3160 3158 3156 3154 3153 3151 3150 3149 3148 3147 3145 3144 3143 3142 3141 3140 3139 3137 3136 3135 3134 3133 3132 3130 3129 3128
3175 3174 3174 3173 3172 3171 3170 3169 3169 3167 3166 3165 3164 3162 3161 3160 3158 3156 3154 3153 3151 3150 3148 3147 3146 3145 3143 3142 3140 3139 3138 3137 3136 3134 3133 3132 3131 3130 3129 3128 3126 3125
3175 3174 3173 3171 3170 3169 3169 3168 3167 3166 3165 3163 3162 3161 3160 3158 3156 3154 3152 3150 3149 3148 3146 3145 3144 3142 3141 3139 3138 3136 3135 3134 3133 3132 3130 3129 3128 3127 3126 3125 3123 3122
3174 3172 3171 3170 3169 3168 3167 3166 3165 3164 3164 3162 3161 3160 3158 3156 3154 3152 3150 3148 3147 3145 3144 3143 3141 3140 3138 3137 3135 3134 3132 3131 3130 3129 3128 3127 3125 3124 3123 3122 3121 3119
3171 3170 3169 3168 3167 3166 3165 3165 3164 3164 3163 3162 3160 3159 3157 3155 3153 3150 3148 3147 3145 3143 3142 3140 3139 3137 3136 3134 3133 3132 3130 3129 3128 3126 3125 3124 3123 3121 3120 3119 3117 3116
3169 3169 3169 3168 3167 3166 3165 3165 3164 3163 3162 3161 3159 3157 3155 3153 3151 3149 3147 3145 3143 3142 3140 3138 3137 3135 3134 3133 3131 3130 3128 3127 3125 3124 3123 3121 3120 3118 3117 3115 3113 3111
3168 3168 3168 3167 3165 3164 3164 3163 3163 3161 3160 3159 3157 3155 3153 3151 3149 3146 3144 3142 3141 3139 3138 3136 3134 3133 3132 3130 3129 3127 3126 3124 3122 3121 3119 3118 3116 3115 3113 3111 3109 3107
3166 3166 3166 3165 3164 3162 3161 3161 3160 3159 3158 3157 3155 3153 3151 3149 3146 3144 3142 3140 3139 3137 3135 3134 3132 3130 3129 3128 3126 3124 3123 3121 3119 3118 3116 3114 3113 3111 3109 3107 3105 3102
3165 3164 3163 3162 3162 3161 3159 3159 3158 3157 3156 3154 3153 3151 3148 3146 3143 3141 3139 3138 3136 3134 3133 3131 3130 3128 3127 3125 3123 3122 3120 3118 3117 3115 3113 3111 3109 3107 3106 3103 3101 3098
3165 3164 3162 3161 3160 3159 3158 3157 3155 3154 3152 3151 3150 3147 3145 3142 3141 3138 3137 3135 3134 3132 3131 3129 3128 3126 3124 3123 3121 3119 3117 3115 3113 3111 3109 3106 3105 3103 3101 3099 3096 3094
3163 3162 3161 3159 3158 3157 3156 3154 3152 3151 3150 3148 3146 3144 3142 3140 3138 3136 3135 3133 3132 3130 3129 3127 3125 3123 3121 3120 3118 3116 3113 3111 3108 3106 3103 3101 3099 3097 3096 3094 3092 3090
3160 3159 3158 3157 3156 3155 3153 3152 3150 3148 3147 3145 3143 3142 3140 3138 3136 3135 3133 3131 3130 3128 3126 3124 3122 3121 3119 3117 3114 3112 3109 3106 3103 3101 3098 3095 3094 3092 3090 3088 3087 3085
Wind_Speed
8 8 8 9 10 11 12 13 14 15 16 17 17 16 16 15 15 15 14 13 13 12 12 12 12 13 13 14 15 16 17 18 19 19 20 21 22 22 22 23 23 23
9 9 10 11 12 13 14 15 15 15 14 14 13 13 13 13 13 13 13 13 12 11 11 12 12 12 12 13 14 14 15 16 17 18 19 20 21 22 22 23 24 24
11 11 11 11 12 12 12 12 11 10 10 11 11 11 12 12 12 12 12 12 12 12 12 12 13 13 13 14 14 15 15 15 16 17 18 19 20 20 21 22 23 23
10 9 9 8 8 8 7 7 7 7 8 9 10 10 11 11 11 11 11 11 12 12 13 13 14 14 14 15 15 15 15 15 16 16 17 18 19 19 20 20 21 22
6 5 5 5 4 4 4 4 4 5 6 6 6 7 8 9 9 10 11 11 12 13 14 14 14 15 15 16 16 16 16 16 16 16 17 18 19 20 20 21 21 22
5 5 4 3 3 2 1 1 1 2 2 3 4 5 7 8 10 10 11 12 12 13 14 14 15 15 16 16 17 17 18 18 18 18 18 19 19 20 21 21 21 22
6 6 5 4 3 3 3 2 1 2 3 5 6 7 8 9 10 11 12 13 13 14 14 15 16 16 16 17 17 18 18 19 20 20 20 20 21 22 22 23 22 22
8 7 7 6 5 4 3 3 4 6 7 8 8 9 9 10 11 12 13 14 14 15 15 15 16 17 17 17 18 18 19 19 20 21 21 22 22 23 23 24 25 24
8 7 6 5 4 3 4 5 6 7 8 9 9 10 10 11 12 13 14 15 16 17 17 17 18 18 18 18 19 19 19 20 20 21 21 22 22 23 23 25 26 26
6 5 4 4 4 4 5 6 7 8 9 9 10 11 12 13 14 15 16 17 18 19 19 19 20 20 20 20 20 20 20 20 20 20 21 21 22 22 23 24 25 26
5 4 4 4 5 5 6 8 9 10 11 11 12 12 13 15 16 17 18 19 19 19 20 20 20 20 20 20 20 20 20 20 20 20 20 21 21 21 22 23 24 25
4 4 5 6 7 8 9 10 11 12 12 12 13 14 15 17 19 20 21 21 21 20 20 19 19 19 19 19 20 20 20 20 20 21 21 21 21 21 22 22 23 23
5 7 7 8 9 10 10 11 12 13 13 13 14 16 18 20 22 23 23 23 23 22 21 20 19 19 19 20 20 20 20 21 21 22 22 22 22 22 22 22 23 23
7 8 9 9 10 11 12 13 14 15 16 16 17 19 22 23 24 25 25 24 23 22 21 21 21 21 21 21 21 21 21 21 21 21 22 22 22 22 22 23 24 24
7 8 9 9 11 12 14 15 16 17 18 18 19 21 24 26 26 26 25 24 23 21 21 21 21 21 22 22 22 21 21 21 21 21 22 22 22 23 23 24 25 25
8 9 10 11 12 14 15 16 16 17 18 19 19 21 24 27 28 27 25 24 22 21 21 21 21 21 21 21 22 22 22 22 22 22 23 23 23 23 23 23 24 24
11 12 14 15 16 16 17 17 17 18 19 19 20 21 25 29 30 28 26 24 22 22 22 22 22 21 21 21 22 22 23 23 23 23 23 23 23 22 22 22 22 23
12 14 15 17 18 18 18 18 18 18 19 20 21 22 26 31 31 29 26 24 22 22 22 22 22 21 21 22 22 22 23 22 22 22 21 22 22 22 22 22 23 23
12 14 16 17 19 19 19 19 20 19 19 21 21 23 28 32 31 28 24 23 22 22 22 22 22 21 21 21 21 21 21 21 21 21 21 21 22 23 24 24 25 26
14 15 16 17 19 20 21 21 21 20 20 21 22 25 30 32 29 25 23 22 22 22 22 22 21 21 20 20 20 20 21 21 21 22 23 24 25 26 27 28 29 30
15 16 18 19 19 20 19 19 20 20 20 21 23 28 32 31 27 24 23 22 22 22 22 22 22 22 21 21 21 22 23 24 25 26 26 28 28 29 30 31 32 34
15 15 17 19 21 21 19 17 18 19 20 22 26 30 31 28 25 23 23 22 22 22 23 23 23 23 23 23 24 25 25 26 27 28 29 30 30 31 32 33 34 35
17 17 17 18 20 21 19 18 18 20 22 25 28 29 27 25 24 24 23 23 23 24 24 23 23 23 24 24 25 26 27 28 29 29 30 31 31 31 32 32 33 33
17 19 19 18 19 19 19 20 21 22 24 25 26 25 24 24 24 24 24 24 24 24 23 23 22 23 23 24 25 26 28 30 31 32 33 33 33 32 32 31 31 31
14 16 18 18 19 20 21 22 23 23 23 23 23 23 24 24 24 24 24 24 23 22 22 22 22 22 23 25 27 29 32 33 34 35 35 35 34 33 32 31 31 30
13 15 17 18 19 21 22 22 22 22 22 22 23 23 23 24 24 24 23 22 22 22 22 23 23 23 25 28 30 32 34 35 36 36 37 37 36 35 34 33 32 32
Wind_Direction
227 229 235 242 248 255 263 269 272 274 276 278 280 282 283 285 285 284 283 279 277 276 274 273 271 270 271 273 273 272 273 273 273 272 270 269 269 269 269 268 267 266
230 235 241 247 254 262 267 271 272 273 277 279 280 282 283 283 281 279 278 278 281 283 283 283 281 281 281 279 277 276 276 277 277 277 276 275 274 274 273 272 271 271
240 243 248 254 260 266 270 272 274 276 276 276 277 279 280 280 281 281 283 286 290 291 291 292 292 292 290 288 287 288 286 284 284 283 282 281 280 279 279 278 277 275
239 241 245 251 255 259 263 265 270 272 273 276 280 282 282 284 287 291 295 299 301 301 302 301 301 300 298 297 296 294 292 290 290 290 289 288 286 284 283 282 281 279
225 225 226 230 233 235 242 252 263 269 272 279 285 288 293 299 304 308 310 310 310 310 309 309 308 307 306 305 303 301 300 298 297 295 294 292 290 287 286 284 284 283
191 191 191 189 188 187 187 217 252 265 276 295 311 319 323 325 325 324 321 320 319 317 316 316 313 311 309 307 306 305 305 303 302 300 297 294 291 288 285 284 284 285
166 160 151 139 127 114 103 94 65 22 7 1 356 350 344 338 333 330 328 326 324 320 318 316 313 310 307 305 304 303 302 302 301 301 299 297 295 293 292 291 290 290
149 138 128 117 104 90 69 47 31 21 14 8 1 354 347 341 335 332 329 326 323 319 316 312 309 306 303 302 301 300 300 300 300 300 300 299 298 298 298 297 296 295
138 131 124 109 87 59 34 21 14 12 9 3 357 350 344 339 335 333 329 326 322 319 315 312 308 305 303 301 299 299 299 299 300 300 299 298 298 297 297 296 295 295
136 134 119 91 67 43 26 14 8 5 0 354 351 348 344 341 337 334 330 326 322 318 315 312 309 307 305 303 302 301 301 301 301 300 298 297 297 296 295 294 293 293
132 119 92 69 49 30 17 8 3 360 354 351 349 346 344 342 338 334 330 326 322 318 314 310 308 306 305 304 304 304 303 304 303 302 301 300 299 299 297 296 294 293
95 66 50 37 25 15 6 360 355 354 353 351 348 344 342 341 338 336 332 327 323 319 316 312 309 307 306 306 306 307 307 307 306 306 305 304 303 302 300 299 297 295
41 29 21 14 8 1 354 349 348 347 346 343 343 344 343 342 339 336 333 329 325 322 319 317 315 314 313 313 312 311 310 309 308 307 306 305 304 302 300 298 297 295
17 9 2 354 349 344 340 337 338 339 336 333 335 340 342 340 338 335 333 329 325 323 321 320 319 318 317 315 313 311 309 308 307 305 303 302 300 299 298 296 295 294
354 346 339 333 330 327 326 327 330 330 327 324 325 332 336 336 334 332 330 327 324 322 320 319 318 316 315 313 311 309 308 306 305 303 301 300 299 299 298 296 295 294
336 331 326 321 318 316 316 322 325 322 319 317 318 324 330 331 331 330 327 325 323 321 319 318 317 316 314 313 311 309 309 307 306 304 303 301 301 300 298 298 297 296
329 325 320 315 312 310 312 315 316 315 315 316 316 320 325 328 329 328 326 324 323 321 321 319 318 317 316 314 312 310 309 308 307 305 304 304 303 301 300 299 298 298
320 315 311 307 305 306 309 310 309 309 312 314 315 318 323 327 327 325 323 323 323 323 322 320 319 318 316 314 312 311 309 309 308 307 306 305 304 304 303 302 300 299
300 297 297 298 300 303 304 302 301 302 306 311 313 316 321 323 322 322 322 322 323 322 320 318 317 316 315 314 312 311 310 309 308 307 307 306 306 305 304 302 300 298
292 294 300 304 304 304 303 302 302 301 303 308 311 314 318 319 319 320 322 323 323 320 318 316 316 316 315 314 314 314 312 311 310 310 309 309 308 307 306 304 302 300
300 301 305 306 303 300 301 304 305 301 300 305 310 313 315 316 318 322 323 322 321 320 319 319 319 320 321 321 320 319 318 316 315 314 314 313 312 311 310 308 306 304
291 287 289 293 296 297 299 304 304 300 301 306 308 310 311 315 320 324 323 322 323 323 323 323 323 324 325 325 324 322 321 320 319 318 317 315 314 312 310 308 306 304
285 286 289 292 296 301 304 306 303 301 303 305 306 309 313 319 324 325 324 326 326 325 324 324 324 324 325 325 325 325 324 323 321 319 317 314 313 311 310 308 307 306
305 307 305 301 301 305 307 306 304 304 305 306 309 314 319 323 326 326 326 327 325 323 322 322 323 325 326 327 328 327 326 324 322 321 319 317 316 315 315 315 314 313
307 306 304 301 302 305 306 304 305 307 308 310 314 318 322 325 327 326 324 323 322 321 321 323 326 330 331 332 333 333 332 331 330 328 326 323 322 321 320 319 318 316
296 297 299 301 303 304 305 306 308 309 311 315 319 322 325 325 324 322 320 320 322 323 325 329 332 333 334 335 338 339 339 338 336 334 331 328 326 324 322 319 318 316